TimeEST,TemperatureF,Dew PointF,Humidity,Sea Level PressureIn,VisibilityMPH,Wind Direction,Wind SpeedMPH,Gust SpeedMPH,PrecipitationIn,Events,Conditions,WindDirDegrees,DateUTC
12:54 AM,25.0,19.9,81,30.21,10.0,SSE,3.5,-,N/A,,Clear,160,2012-12-07 05:54:00
1:54 AM,27.0,18.0,69,30.20,10.0,South,8.1,-,N/A,,Clear,190,2012-12-07 06:54:00
2:54 AM,27.0,18.0,69,30.19,10.0,South,3.5,-,N/A,,Clear,180,2012-12-07 07:54:00
3:54 AM,27.0,18.0,69,30.17,10.0,South,5.8,-,N/A,,Clear,190,2012-12-07 08:54:00
4:54 AM,27.0,18.0,69,30.16,10.0,SSE,3.5,-,N/A,,Clear,160,2012-12-07 09:54:00
5:54 AM,24.1,18.0,77,30.15,10.0,South,3.5,-,N/A,,Clear,180,2012-12-07 10:54:00
6:54 AM,24.1,18.0,77,30.14,10.0,South,3.5,-,N/A,,Clear,190,2012-12-07 11:54:00
7:54 AM,25.0,19.0,78,30.13,9.0,Calm,Calm,-,N/A,,Clear,0,2012-12-07 12:54:00
8:54 AM,30.0,19.9,66,30.12,10.0,South,3.5,-,N/A,,Clear,180,2012-12-07 13:54:00
9:54 AM,33.1,19.0,56,30.12,10.0,Variable,6.9,-,N/A,,Clear,0,2012-12-07 14:54:00
10:54 AM,35.1,18.0,50,30.09,10.0,South,3.5,-,N/A,,Partly Cloudy,190,2012-12-07 15:54:00
11:54 AM,36.0,18.0,48,30.08,10.0,Calm,Calm,-,N/A,,Clear,0,2012-12-07 16:54:00
12:54 PM,37.0,18.0,46,30.05,10.0,SSW,5.8,-,N/A,,Mostly Cloudy,200,2012-12-07 17:54:00
1:54 PM,36.0,19.0,50,30.05,10.0,South,5.8,-,N/A,,Overcast,190,2012-12-07 18:54:00
2:54 PM,36.0,21.0,55,30.04,10.0,SSW,4.6,-,N/A,,Overcast,200,2012-12-07 19:54:00
3:54 PM,36.0,21.9,57,30.05,10.0,Calm,Calm,-,N/A,,Overcast,0,2012-12-07 20:54:00
4:54 PM,35.1,23.0,61,30.05,10.0,Calm,Calm,-,N/A,,Overcast,0,2012-12-07 21:54:00
5:54 PM,34.0,24.1,67,30.05,10.0,Calm,Calm,-,N/A,,Overcast,0,2012-12-07 22:54:00
6:54 PM,32.0,23.0,69,30.06,10.0,Calm,Calm,-,N/A,,Mostly Cloudy,0,2012-12-07 23:54:00
8:54 PM,30.9,25.0,79,30.05,10.0,Calm,Calm,-,N/A,,Mostly Cloudy,0,2012-12-08 01:54:00
9:54 PM,32.0,25.0,75,30.05,10.0,Calm,Calm,-,N/A,,Overcast,0,2012-12-08 02:54:00
10:54 PM,32.0,26.1,79,30.06,10.0,Calm,Calm,-,N/A,,Overcast,0,2012-12-08 03:54:00
11:54 PM,30.9,25.0,79,30.05,10.0,Calm,Calm,-,N/A,,Mostly Cloudy,0,2012-12-08 04:54:00